Regional Weather Roundup
Issued by NWS

Home | Current Version | Previous Version | Graphics & Text | Print | Product List | Glossary On
Versions: 1 2 3 4 5 6 7 8 9 10 11 12 13 14 15 16 17 18 19 20 21 22 23 24 25 26 27 28 29 30 31 32 33 34 35 36 37 38 39 40 41 42 43 44 45 46 47 48 49 50
000
ASUS43 KBIS 190110
RWRND

NORTH DAKOTA REGIONAL WEATHER ROUNDUP
NATIONAL WEATHER SERVICE BISMARCK ND
800 PM CDT MON SEP 18 2017

NOTE: "FAIR" INDICATES FEW OR NO CLOUDS BELOW 12,000 FEET WITH NO
SIGNIFICANT WEATHER AND/OR OBSTRUCTIONS TO VISIBILITY.


NDZ001>003-009>011-017-190200-
NORTHWEST NORTH DAKOTA

CITY           SKY/WX    TMP DP  RH WIND       PRES   REMARKS
WILLISTON      CLOUDY    66  44  45 SE5       29.66F
MINOT          CLOUDY    62  48  60 E8        29.75S
MINOT AFB      PTCLDY    60  49  68 SE10      29.73F
$$

NDZ018>021-031>035-040>046-190200-
SOUTHWEST NORTH DAKOTA

CITY           SKY/WX    TMP DP  RH WIND       PRES   REMARKS
BISMARCK       MOCLDY    63  52  67 E7        29.77F
DICKINSON      CLOUDY    65  43  44 SE12      29.70F
GARRISON         N/A     62  50  64 SE8       29.75S
HETTINGER ARPT PTCLDY    65  40  39 SE8       29.75S
$$

NDZ004>008-012>016-024-026-027-054-190200-
NORTHEAST NORTH DAKOTA

CITY           SKY/WX    TMP DP  RH WIND       PRES   REMARKS
GRAND FORKS    PTCLDY    62  58  86 SE12      29.82R
GRND FRKS AFB  CLEAR     63  55  77 S10       29.84R
DEVILS LAKE    CLEAR     57  51  80 E6        29.81F
$$

NDZ022-023-025-028>030-036>039-047>053-190200-
SOUTHEAST NORTH DAKOTA

CITY           SKY/WX    TMP DP  RH WIND       PRES   REMARKS
FARGO          CLOUDY    64  57  78 SE10      29.83S
JAMESTOWN      CLEAR     60  49  66 CALM      29.79S
$$





USA.gov is the U.S. government's official web portal to all federal, state and local government web resources and services.